,,Stat6,,Stat2,,Stat8,,Stat9,,Stat10,,Wind1,,Wind1,
time,status,PA1M_AVG,status,PR1M_SUM,status,RH1M_AVG,status,SR1M_AVG,status,TA1M_AVG,status,W1dAve1m,status,W1sAve1m,
2003-12-16, 00:00:00,VALID,918.31,VALID,0,VALID,100,VALID,-0.0169808,VALID,18.8809,VALID,4,VALID,0.724185,
2003-12-16, 00:01:00,VALID,918.309,VALID,0,VALID,100,VALID,-0.0169808,VALID,18.9005,VALID,10,VALID,0.841694,
2003-12-16, 00:02:00,VALID,918.308,VALID,0,VALID,100,VALID,-0.0169808,VALID,18.8968,VALID,11,VALID,0.783854,
2003-12-16, 00:03:00,VALID,918.317,VALID,0,VALID,100,VALID,0,VALID,18.9166,VALID,11,VALID,0.614211,
2003-12-16, 00:04:00,VALID,918.318,VALID,0,VALID,100,VALID,-0.0169808,VALID,18.9259,VALID,11,VALID,0.503472,
2003-12-16, 00:05:00,VALID,918.305,VALID,0,VALID,100,VALID,-0.0169808,VALID,18.9097,VALID,11,VALID,0.574855,
2003-12-16, 00:06:00,VALID,918.296,VALID,0,VALID,100,VALID,0,VALID,18.9196,VALID,11,VALID,0.305051,
2003-12-16, 00:07:00,VALID,918.284,VALID,0,VALID,100,VALID,0,VALID,18.9321,VALID,11,VALID,0.205729,
2003-12-16, 00:08:00,VALID,918.287,VALID,0,VALID,100,VALID,-0.0169808,VALID,18.9489,VALID,10,VALID,0.269259,
2003-12-16, 00:09:00,VALID,918.268,VALID,0,VALID,100,VALID,0,VALID,18.8975,VALID,9,VALID,0.325462,
2003-12-16, 00:10:00,VALID,918.241,VALID,0,VALID,100,VALID,-0.0169808,VALID,18.874,VALID,9,VALID,0.0319767,
2003-12-16, 00:11:00,VALID,918.215,VALID,0,VALID,100,VALID,-0.0169808,VALID,18.8876,VALID,9,VALID,0.0403963,
2003-12-16, 00:12:00,VALID,918.185,VALID,0,VALID,100,VALID,-0.0169808,VALID,18.8841,VALID,9,VALID,0,
2003-12-16, 00:13:00,VALID,918.171,VALID,0,VALID,100,VALID,0,VALID,18.8936,VALID,9,VALID,0,
2003-12-16, 00:14:00,VALID,918.15,VALID,0,VALID,100,VALID,-0.0169808,VALID,18.9291,VALID,9,VALID,0,
2003-12-16, 00:15:00,VALID,918.124,VALID,0,VALID,100,VALID,-0.0169808,VALID,18.9323,VALID,315,VALID,0.285243,
2003-12-16, 00:16:00,VALID,918.11,VALID,0,VALID,100,VALID,0,VALID,18.9062,VALID,263,VALID,0.395597,
2003-12-16, 00:17:00,VALID,918.086,VALID,0,VALID,100,VALID,0,VALID,18.9097,VALID,258,VALID,0.303735,
2003-12-16, 00:18:00,VALID,918.069,VALID,0,VALID,100,VALID,0,VALID,18.8966,VALID,258,VALID,0.106534,
2003-12-16, 00:19:00,VALID,918.06,VALID,0,VALID,100,VALID,0,VALID,18.9065,VALID,258,VALID,0.00223214,
2003-12-16, 00:20:00,VALID,918.053,VALID,0,VALID,100,VALID,0,VALID,18.9323,VALID,258,VALID,0.0625,
2003-12-16, 00:21:00,VALID,918.048,VALID,0,VALID,100,VALID,0.0169808,VALID,18.9457,VALID,258,VALID,0.0857515,
2003-12-16, 00:22:00,VALID,918.044,VALID,0,VALID,100,VALID,0,VALID,18.9487,VALID,279,VALID,0.344322,
2003-12-16, 00:23:00,VALID,918.037,VALID,0,VALID,100,VALID,-0.0169808,VALID,18.9194,VALID,332,VALID,0.376272,
2003-12-16, 00:24:00,VALID,918.026,VALID,0,VALID,100,VALID,-0.0169808,VALID,18.9291,VALID,3,VALID,0.53267,
2003-12-16, 00:25:00,VALID,918.013,VALID,0,VALID,100,VALID,0,VALID,18.9649,VALID,3,VALID,0.399554,
2003-12-16, 00:26:00,VALID,918.011,VALID,0,VALID,100,VALID,0.0169808,VALID,18.9614,VALID,3,VALID,0.215376,
2003-12-16, 00:27:00,VALID,917.988,VALID,0,VALID,100,VALID,0,VALID,18.9584,VALID,3,VALID,0.27689,
2003-12-16, 00:28:00,VALID,917.979,VALID,0,VALID,100,VALID,0.0169808,VALID,18.9293,VALID,3,VALID,0.152716,
2003-12-16, 00:29:00,VALID,917.965,VALID,0,VALID,100,VALID,-0.0169808,VALID,18.9328,VALID,3,VALID,0.0964753,
2003-12-16, 00:30:00,VALID,917.966,VALID,0,VALID,100,VALID,0,VALID,18.9104,VALID,3,VALID,0,
2003-12-16, 00:31:00,VALID,917.953,VALID,0,VALID,100,VALID,0.0169808,VALID,18.8744,VALID,3,VALID,0,
2003-12-16, 00:32:00,VALID,917.948,VALID,0,VALID,100,VALID,0,VALID,18.8486,VALID,3,VALID,0,
2003-12-16, 00:33:00,VALID,917.95,VALID,0,VALID,100,VALID,0,VALID,18.8292,VALID,3,VALID,0,
2003-12-16, 00:34:00,VALID,917.956,VALID,0,VALID,100,VALID,0.0169808,VALID,18.8228,VALID,3,VALID,0,
2003-12-16, 00:35:00,VALID,917.959,VALID,0,VALID,100,VALID,0,VALID,18.8131,VALID,3,VALID,0,
2003-12-16, 00:36:00,VALID,917.962,VALID,0,VALID,100,VALID,0.0169808,VALID,18.8195,VALID,3,VALID,0,
2003-12-16, 00:37:00,VALID,917.964,VALID,0,VALID,100,VALID,0,VALID,18.8128,VALID,3,VALID,0,
2003-12-16, 00:38:00,VALID,917.962,VALID,0,VALID,100,VALID,-0.0169808,VALID,18.8133,VALID,3,VALID,0,
2003-12-16, 00:39:00,VALID,917.948,VALID,0,VALID,100,VALID,-0.0169808,VALID,18.8267,VALID,3,VALID,0,
2003-12-16, 00:40:00,VALID,917.934,VALID,0,VALID,100,VALID,-0.0169808,VALID,18.8103,VALID,3,VALID,0,
2003-12-16, 00:41:00,VALID,917.914,VALID,0,VALID,100,VALID,-0.0509425,VALID,18.7969,VALID,3,VALID,0,
2003-12-16, 00:42:00,VALID,917.909,VALID,0,VALID,100,VALID,0,VALID,18.7972,VALID,3,VALID,0,
2003-12-16, 00:43:00,VALID,917.898,VALID,0,VALID,100,VALID,0,VALID,18.7681,VALID,3,VALID,0.378125,
2003-12-16, 00:44:00,VALID,917.88,VALID,0,VALID,100,VALID,-0.0339617,VALID,18.7301,VALID,3,VALID,0.412202,
2003-12-16, 00:45:00,VALID,917.88,VALID,0,VALID,100,VALID,-0.0169808,VALID,18.71,VALID,9,VALID,0.410156,
2003-12-16, 00:46:00,VALID,917.885,VALID,0,VALID,100,VALID,-0.0169808,VALID,18.6971,VALID,20,VALID,0.347565,
2003-12-16, 00:47:00,VALID,917.884,VALID,0,VALID,100,VALID,-0.0169808,VALID,18.6782,VALID,37,VALID,0.68423,
2003-12-16, 00:48:00,VALID,917.887,VALID,0,VALID,100,VALID,0,VALID,18.6449,VALID,47,VALID,0.880907,
2003-12-16, 00:49:00,VALID,917.898,VALID,0,VALID,100,VALID,0.0169808,VALID,18.6514,VALID,49,VALID,0.750381,
2003-12-16, 00:50:00,VALID,917.929,VALID,0,VALID,100,VALID,-0.0169808,VALID,18.6489,VALID,50,VALID,0.732515,
2003-12-16, 00:51:00,VALID,917.95,VALID,0,VALID,100,VALID,0.0169808,VALID,18.6126,VALID,50,VALID,0.678993,
2003-12-16, 00:52:00,VALID,917.958,VALID,0,VALID,100,VALID,0,VALID,18.6069,VALID,47,VALID,0.653125,
2003-12-16, 00:53:00,VALID,917.968,VALID,0,VALID,100,VALID,0,VALID,18.5573,VALID,53,VALID,0.852431,
2003-12-16, 00:54:00,VALID,917.969,VALID,0,VALID,100,VALID,0,VALID,18.5511,VALID,41,VALID,0.673785,
2003-12-16, 00:55:00,VALID,917.957,VALID,0,VALID,100,VALID,0.0169808,VALID,18.5739,VALID,41,VALID,0.905859,
2003-12-16, 00:56:00,VALID,917.95,VALID,0,VALID,100,VALID,0.0169808,VALID,18.5704,VALID,50,VALID,1.04743,
2003-12-16, 00:57:00,VALID,917.924,VALID,0,VALID,100,VALID,0.0169808,VALID,18.6,VALID,40,VALID,1.00195,
2003-12-16, 00:58:00,VALID,917.928,VALID,0,VALID,100,VALID,0,VALID,18.5935,VALID,42,VALID,0.81901,
2003-12-16, 00:59:00,VALID,917.923,VALID,0,VALID,100,VALID,0,VALID,18.603,VALID,38,VALID,0.640988,
2003-12-16, 01:00:00,VALID,917.908,VALID,0,VALID,100,VALID,0,VALID,18.5967,VALID,28,VALID,0.606445,
2003-12-16, 01:01:00,VALID,917.891,VALID,0,VALID,100,VALID,0,VALID,18.6002,VALID,27,VALID,0.471413,
2003-12-16, 01:02:00,VALID,917.877,VALID,0,VALID,100,VALID,0.0169808,VALID,18.567,VALID,27,VALID,0.599609,
2003-12-16, 01:03:00,VALID,917.869,VALID,0,VALID,100,VALID,0,VALID,18.59,VALID,27,VALID,0.374442,
2003-12-16, 01:04:00,VALID,917.864,VALID,0,VALID,100,VALID,0.0169808,VALID,18.5836,VALID,27,VALID,0.597561,
2003-12-16, 01:05:00,VALID,917.867,VALID,0,VALID,100,VALID,0.0169808,VALID,18.6064,VALID,27,VALID,0.767149,
2003-12-16, 01:06:00,VALID,917.86,VALID,0,VALID,100,VALID,0.0169808,VALID,18.5967,VALID,24,VALID,0.750182,
2003-12-16, 01:07:00,VALID,917.852,VALID,0,VALID,100,VALID,0.0339617,VALID,18.5937,VALID,18,VALID,0.826389,
2003-12-16, 01:08:00,VALID,917.844,VALID,0,VALID,100,VALID,0.0169808,VALID,18.5905,VALID,19,VALID,0.753125,
2003-12-16, 01:09:00,VALID,917.827,VALID,0,VALID,100,VALID,0.0169808,VALID,18.5868,VALID,13,VALID,0.757254,
2003-12-16, 01:10:00,VALID,917.819,VALID,0,VALID,100,VALID,-0.0169808,VALID,18.6034,VALID,12,VALID,0.586124,
2003-12-16, 01:11:00,VALID,917.799,VALID,0,VALID,100,VALID,0,VALID,18.6094,VALID,13,VALID,0.647222,
2003-12-16, 01:12:00,VALID,917.792,VALID,0,VALID,100,VALID,0.0169808,VALID,18.623,VALID,13,VALID,0.352865,
2003-12-16, 01:13:00,VALID,917.79,VALID,0,VALID,100,VALID,0.0169808,VALID,18.6258,VALID,13,VALID,0.315476,
2003-12-16, 01:14:00,VALID,917.785,VALID,0,VALID,100,VALID,0.0339617,VALID,18.6196,VALID,13,VALID,0.0988372,
2003-12-16, 01:15:00,VALID,917.796,VALID,0,VALID,100,VALID,0.0169808,VALID,18.6161,VALID,13,VALID,0,
2003-12-16, 01:16:00,VALID,917.792,VALID,0,VALID,100,VALID,0,VALID,18.6094,VALID,13,VALID,0,
2003-12-16, 01:17:00,VALID,917.805,VALID,0,VALID,100,VALID,0,VALID,18.6,VALID,48,VALID,0.18388,
2003-12-16, 01:18:00,VALID,917.801,VALID,0,VALID,100,VALID,0,VALID,18.594,VALID,118,VALID,0.533296,
2003-12-16, 01:19:00,VALID,917.792,VALID,0,VALID,100,VALID,0.0339617,VALID,18.5838,VALID,129,VALID,0.542969,
2003-12-16, 01:20:00,VALID,917.778,VALID,0,VALID,100,VALID,0.0169808,VALID,18.5612,VALID,130,VALID,0.436384,
2003-12-16, 01:21:00,VALID,917.753,VALID,0,VALID,100,VALID,0.0339617,VALID,18.5617,VALID,135,VALID,0.537287,
2003-12-16, 01:22:00,VALID,917.748,VALID,0,VALID,100,VALID,0.0169808,VALID,18.5354,VALID,137,VALID,0.335938,
2003-12-16, 01:23:00,VALID,917.73,VALID,0,VALID,100,VALID,0.0169808,VALID,18.5379,VALID,137,VALID,0.190358,
2003-12-16, 01:24:00,VALID,917.715,VALID,0,VALID,100,VALID,0,VALID,18.5451,VALID,137,VALID,0.290968,
2003-12-16, 01:25:00,VALID,917.699,VALID,0,VALID,100,VALID,-0.0169808,VALID,18.5483,VALID,137,VALID,0.471037,
2003-12-16, 01:26:00,VALID,917.683,VALID,0,VALID,100,VALID,0.0169808,VALID,18.5577,VALID,137,VALID,0.499826,
2003-12-16, 01:27:00,VALID,917.677,VALID,0,VALID,100,VALID,0,VALID,18.558,VALID,137,VALID,0.492001,
2003-12-16, 01:28:00,VALID,917.657,VALID,0,VALID,100,VALID,0,VALID,18.561,VALID,139,VALID,0.631541,
2003-12-16, 01:29:00,VALID,917.643,VALID,0,VALID,100,VALID,0,VALID,18.5677,VALID,139,VALID,0.737153,
2003-12-16, 01:30:00,VALID,917.636,VALID,0,VALID,100,VALID,0.0509425,VALID,18.5774,VALID,139,VALID,0.882465,
2003-12-16, 01:31:00,VALID,917.633,VALID,0,VALID,100,VALID,0,VALID,18.5838,VALID,145,VALID,0.635045,
2003-12-16, 01:32:00,VALID,917.636,VALID,0,VALID,100,VALID,0,VALID,18.5838,VALID,158,VALID,0.704268,
2003-12-16, 01:33:00,VALID,917.624,VALID,0,VALID,100,VALID,0.0169808,VALID,18.5746,VALID,156,VALID,0.680051,
2003-12-16, 01:34:00,VALID,917.611,VALID,0,VALID,100,VALID,0.0169808,VALID,18.5778,VALID,143,VALID,0.628906,
2003-12-16, 01:35:00,VALID,917.603,VALID,0,VALID,100,VALID,0,VALID,18.561,VALID,146,VALID,0.895508,
2003-12-16, 01:36:00,VALID,917.585,VALID,0,VALID,100,VALID,0,VALID,18.5647,VALID,145,VALID,0.541788,
2003-12-16, 01:37:00,VALID,917.572,VALID,0,VALID,100,VALID,0,VALID,18.5614,VALID,154,VALID,0.349927,
2003-12-16, 01:38:00,VALID,917.536,VALID,0,VALID,100,VALID,0,VALID,18.5744,VALID,163,VALID,0.594512,
2003-12-16, 01:39:00,VALID,917.496,VALID,0,VALID,100,VALID,0,VALID,18.5714,VALID,181,VALID,0.454368,
2003-12-16, 01:40:00,VALID,917.476,VALID,0,VALID,100,VALID,0.0169808,VALID,18.5771,VALID,173,VALID,0.771662,
2003-12-16, 01:41:00,VALID,917.456,VALID,0,VALID,100,VALID,0,VALID,18.5741,VALID,171,VALID,0.828497,
2003-12-16, 01:42:00,VALID,917.416,VALID,0,VALID,100,VALID,0,VALID,18.5808,VALID,170,VALID,0.744922,
2003-12-16, 01:43:00,VALID,917.394,VALID,0,VALID,100,VALID,0,VALID,18.5843,VALID,176,VALID,0.591442,
2003-12-16, 01:44:00,VALID,917.374,VALID,0,VALID,100,VALID,0,VALID,18.5778,VALID,177,VALID,0.542333,
2003-12-16, 01:45:00,VALID,917.355,VALID,0,VALID,100,VALID,0,VALID,18.5776,VALID,189,VALID,0.0827753,
2003-12-16, 01:46:00,VALID,917.336,VALID,0,VALID,100,VALID,0.0169808,VALID,18.5912,VALID,169,VALID,0.259629,
2003-12-16, 01:47:00,VALID,917.307,VALID,0,VALID,100,VALID,0,VALID,18.5808,VALID,143,VALID,0.309956,
2003-12-16, 01:48:00,VALID,917.267,VALID,0,VALID,100,VALID,0.0339617,VALID,18.591,VALID,137,VALID,0.812855,
2003-12-16, 01:49:00,VALID,917.267,VALID,0,VALID,100,VALID,0,VALID,18.5843,VALID,135,VALID,0.881037,
2003-12-16, 01:50:00,VALID,917.235,VALID,0,VALID,100,VALID,0,VALID,18.5843,VALID,137,VALID,1.01432,
2003-12-16, 01:51:00,VALID,917.227,VALID,0,VALID,100,VALID,0.0169808,VALID,18.5741,VALID,138,VALID,1.21094,
2003-12-16, 01:52:00,VALID,917.195,VALID,0,VALID,100,VALID,0.0339617,VALID,18.5637,VALID,138,VALID,0.993253,
2003-12-16, 01:53:00,VALID,917.166,VALID,0,VALID,100,VALID,0.0339617,VALID,18.5739,VALID,133,VALID,1.2314,
2003-12-16, 01:54:00,VALID,917.15,VALID,0,VALID,100,VALID,0.0339617,VALID,18.5707,VALID,125,VALID,1.06994,
2003-12-16, 01:55:00,VALID,917.141,VALID,0,VALID,100,VALID,0.0169808,VALID,18.5642,VALID,123,VALID,0.590104,
2003-12-16, 01:56:00,VALID,917.115,VALID,0,VALID,100,VALID,0,VALID,18.5644,VALID,93,VALID,0.460029,
2003-12-16, 01:57:00,VALID,917.11,VALID,0,VALID,100,VALID,0.0339617,VALID,18.5548,VALID,83,VALID,0.329215,
2003-12-16, 01:58:00,VALID,917.094,VALID,0,VALID,100,VALID,0.0339617,VALID,18.5444,VALID,91,VALID,0.616655,
2003-12-16, 01:59:00,VALID,917.082,VALID,0,VALID,100,VALID,0.0509425,VALID,18.5451,VALID,102,VALID,0.523819,
2003-12-16, 02:00:00,VALID,917.079,VALID,0,VALID,100,VALID,0.0509425,VALID,18.5388,VALID,119,VALID,0.814317,
2003-12-16, 02:01:00,VALID,917.065,VALID,0,VALID,100,VALID,0.0339617,VALID,18.5552,VALID,135,VALID,0.909784,
2003-12-16, 02:02:00,VALID,917.055,VALID,0,VALID,100,VALID,0.0169808,VALID,18.5515,VALID,138,VALID,0.670422,
2003-12-16, 02:03:00,VALID,917.062,VALID,0,VALID,100,VALID,-0.0169808,VALID,18.5321,VALID,133,VALID,0.863376,
2003-12-16, 02:04:00,VALID,917.055,VALID,0,VALID,100,VALID,0,VALID,18.5423,VALID,126,VALID,0.859561,
2003-12-16, 02:05:00,VALID,917.041,VALID,0,VALID,100,VALID,0.0169808,VALID,18.5388,VALID,134,VALID,1.09691,
2003-12-16, 02:06:00,VALID,917.043,VALID,0,VALID,100,VALID,0,VALID,18.5262,VALID,124,VALID,1.16704,
2003-12-16, 02:07:00,VALID,917.02,VALID,0,VALID,100,VALID,0.0169808,VALID,18.5135,VALID,127,VALID,1.1503,
2003-12-16, 02:08:00,VALID,917.002,VALID,0,VALID,100,VALID,0.0169808,VALID,18.4969,VALID,114,VALID,1.37872,
2003-12-16, 02:09:00,VALID,916.983,VALID,0,VALID,100,VALID,0,VALID,18.5031,VALID,101,VALID,1.03359,
2003-12-16, 02:10:00,VALID,916.982,VALID,0,VALID,100,VALID,0.0339617,VALID,18.4971,VALID,98,VALID,1.00648,
2003-12-16, 02:11:00,VALID,916.971,VALID,0,VALID,100,VALID,0.0169808,VALID,18.4768,VALID,75,VALID,0.702567,
2003-12-16, 02:12:00,VALID,916.967,VALID,0,VALID,100,VALID,0.0339617,VALID,18.4874,VALID,61,VALID,0.778963,
2003-12-16, 02:13:00,VALID,916.966,VALID,0,VALID,100,VALID,0.0339617,VALID,18.4837,VALID,63,VALID,0.615767,
2003-12-16, 02:14:00,VALID,916.967,VALID,0,VALID,100,VALID,0,VALID,18.4703,VALID,64,VALID,0.690044,
2003-12-16, 02:15:00,VALID,916.99,VALID,0,VALID,100,VALID,0.0339617,VALID,18.4803,VALID,76,VALID,0.534412,
2003-12-16, 02:16:00,VALID,917.008,VALID,0,VALID,100,VALID,0.0169808,VALID,18.4807,VALID,75,VALID,0.44455,
2003-12-16, 02:17:00,VALID,917.037,VALID,0,VALID,100,VALID,0.0509425,VALID,18.4807,VALID,57,VALID,0.597461,
2003-12-16, 02:18:00,VALID,917.061,VALID,0,VALID,100,VALID,0.0169808,VALID,18.4643,VALID,64,VALID,0.931868,
2003-12-16, 02:19:00,VALID,917.073,VALID,0,VALID,100,VALID,0.0169808,VALID,18.4646,VALID,60,VALID,0.701219,
2003-12-16, 02:20:00,VALID,917.099,VALID,0,VALID,100,VALID,0,VALID,18.4581,VALID,53,VALID,0.650436,
2003-12-16, 02:21:00,VALID,917.093,VALID,0,VALID,100,VALID,0.0169808,VALID,18.451,VALID,47,VALID,0.863948,
2003-12-16, 02:22:00,VALID,917.093,VALID,0,VALID,100,VALID,-0.0339617,VALID,18.4521,VALID,44,VALID,0.91915,
2003-12-16, 02:23:00,VALID,917.076,VALID,0,VALID,100,VALID,-0.0339617,VALID,18.4627,VALID,48,VALID,0.935352,
2003-12-16, 02:24:00,VALID,917.058,VALID,0,VALID,100,VALID,-0.0679233,VALID,18.456,VALID,54,VALID,0.73559,
2003-12-16, 02:25:00,VALID,917.038,VALID,0,VALID,100,VALID,-0.0679233,VALID,18.4662,VALID,32,VALID,0.657522,
2003-12-16, 02:26:00,VALID,917.015,VALID,0,VALID,100,VALID,-0.0849042,VALID,18.4694,VALID,41,VALID,0.796484,
2003-12-16, 02:27:00,VALID,917.008,VALID,0,VALID,100,VALID,-0.0679233,VALID,18.4655,VALID,45,VALID,0.575893,
2003-12-16, 02:28:00,VALID,916.976,VALID,0,VALID,100,VALID,-0.0679233,VALID,18.4858,VALID,66,VALID,0.541493,
2003-12-16, 02:29:00,VALID,916.975,VALID,0,VALID,100,VALID,-0.101885,VALID,18.4754,VALID,81,VALID,0.598437,
2003-12-16, 02:30:00,VALID,916.96,VALID,0,VALID,100,VALID,-0.0849042,VALID,18.4791,VALID,106,VALID,0.677455,
2003-12-16, 02:31:00,VALID,916.945,VALID,0,VALID,100,VALID,-0.0679233,VALID,18.4683,VALID,120,VALID,0.790153,
2003-12-16, 02:32:00,VALID,916.942,VALID,0,VALID,100,VALID,-0.0509425,VALID,18.4823,VALID,102,VALID,0.676736,
2003-12-16, 02:33:00,VALID,916.947,VALID,0.2,VALID,100,VALID,-0.0509425,VALID,18.4554,VALID,95,VALID,0.691679,
2003-12-16, 02:34:00,VALID,916.924,VALID,0,VALID,100,VALID,-0.0849042,VALID,18.4662,VALID,80,VALID,0.785069,
2003-12-16, 02:35:00,VALID,916.914,VALID,0,VALID,100,VALID,-0.0509425,VALID,18.4468,VALID,81,VALID,0.849657,
2003-12-16, 02:36:00,VALID,916.9,VALID,0,VALID,100,VALID,-0.0679233,VALID,18.4397,VALID,93,VALID,0.878906,
2003-12-16, 02:37:00,VALID,916.892,VALID,0,VALID,100,VALID,-0.0339617,VALID,18.4328,VALID,102,VALID,0.925409,
2003-12-16, 02:38:00,VALID,916.885,VALID,0,VALID,100,VALID,0,VALID,18.4293,VALID,113,VALID,0.636265,
2003-12-16, 02:39:00,VALID,916.877,VALID,0,VALID,100,VALID,0.0509425,VALID,18.4318,VALID,128,VALID,1.06658,
2003-12-16, 02:40:00,VALID,916.878,VALID,0,VALID,100,VALID,-0.0169808,VALID,18.4454,VALID,132,VALID,1.27734,
2003-12-16, 02:41:00,VALID,916.879,VALID,0,VALID,100,VALID,0.0169808,VALID,18.4385,VALID,133,VALID,1.08574,
2003-12-16, 02:42:00,VALID,916.878,VALID,0,VALID,100,VALID,0,VALID,18.4387,VALID,129,VALID,1.15781,
2003-12-16, 02:43:00,VALID,916.861,VALID,0,VALID,100,VALID,0.0169808,VALID,18.4454,VALID,132,VALID,1.32101,
2003-12-16, 02:44:00,VALID,916.856,VALID,0,VALID,100,VALID,0,VALID,18.4519,VALID,134,VALID,1.05259,
2003-12-16, 02:45:00,VALID,916.838,VALID,0,VALID,100,VALID,-0.0169808,VALID,18.445,VALID,136,VALID,1.43407,
2003-12-16, 02:46:00,VALID,916.826,VALID,0,VALID,100,VALID,0.0169808,VALID,18.4551,VALID,132,VALID,1.25937,
2003-12-16, 02:47:00,VALID,916.809,VALID,0,VALID,100,VALID,0,VALID,18.4849,VALID,141,VALID,1.46113,
2003-12-16, 02:48:00,VALID,916.772,VALID,0,VALID,100,VALID,0.0169808,VALID,18.4849,VALID,140,VALID,1.01162,
2003-12-16, 02:49:00,VALID,916.757,VALID,0,VALID,100,VALID,0,VALID,18.4807,VALID,138,VALID,0.977108,
2003-12-16, 02:50:00,VALID,916.749,VALID,0,VALID,100,VALID,0,VALID,18.4911,VALID,133,VALID,1.02433,
2003-12-16, 02:51:00,VALID,916.737,VALID,0,VALID,100,VALID,0,VALID,18.4939,VALID,127,VALID,1.00373,
2003-12-16, 02:52:00,VALID,916.723,VALID,0,VALID,100,VALID,0,VALID,18.474,VALID,121,VALID,0.648438,
2003-12-16, 02:53:00,VALID,916.709,VALID,0,VALID,100,VALID,0.0169808,VALID,18.481,VALID,123,VALID,0.869444,
2003-12-16, 02:54:00,VALID,916.698,VALID,0,VALID,100,VALID,0,VALID,18.4646,VALID,112,VALID,1.17383,
2003-12-16, 02:55:00,VALID,916.693,VALID,0,VALID,100,VALID,0,VALID,18.4777,VALID,121,VALID,1.04368,
2003-12-16, 02:56:00,VALID,916.686,VALID,0,VALID,100,VALID,0.0339617,VALID,18.4807,VALID,123,VALID,0.824128,
2003-12-16, 02:57:00,VALID,916.676,VALID,0,VALID,100,VALID,0,VALID,18.5068,VALID,129,VALID,1.75725,
2003-12-16, 02:58:00,VALID,916.685,VALID,0,VALID,100,VALID,0.0169808,VALID,18.5227,VALID,130,VALID,1.29792,
2003-12-16, 02:59:00,VALID,916.684,VALID,0,VALID,100,VALID,0.0339617,VALID,18.5423,VALID,135,VALID,1.11362,
2003-12-16, 03:00:00,VALID,916.671,VALID,0,VALID,100,VALID,0.0339617,VALID,18.5575,VALID,141,VALID,1.04818,
2003-12-16, 03:01:00,VALID,916.675,VALID,0,VALID,100,VALID,0.0169808,VALID,18.5778,VALID,142,VALID,1.10302,
2003-12-16, 03:02:00,VALID,916.68,VALID,0,VALID,100,VALID,0,VALID,18.5808,VALID,125,VALID,1.17402,
2003-12-16, 03:03:00,VALID,916.688,VALID,0,VALID,100,VALID,0.0169808,VALID,18.5937,VALID,139,VALID,0.885156,
2003-12-16, 03:04:00,VALID,916.694,VALID,0,VALID,100,VALID,0,VALID,18.6071,VALID,132,VALID,1.1508,
2003-12-16, 03:05:00,VALID,916.696,VALID,0,VALID,100,VALID,0,VALID,18.6032,VALID,152,VALID,0.963844,
2003-12-16, 03:06:00,VALID,916.695,VALID,0,VALID,100,VALID,0,VALID,18.6096,VALID,123,VALID,0.886242,
2003-12-16, 03:07:00,VALID,916.7,VALID,0,VALID,100,VALID,-0.0339617,VALID,18.6136,VALID,132,VALID,1.15816,
2003-12-16, 03:08:00,VALID,916.698,VALID,0,VALID,100,VALID,0.0169808,VALID,18.6168,VALID,132,VALID,0.918064,
2003-12-16, 03:09:00,VALID,916.689,VALID,0,VALID,100,VALID,0,VALID,18.6099,VALID,143,VALID,0.718559,
2003-12-16, 03:10:00,VALID,916.688,VALID,0,VALID,100,VALID,0,VALID,18.6094,VALID,167,VALID,1.09793,
2003-12-16, 03:11:00,VALID,916.671,VALID,0,VALID,100,VALID,0,VALID,18.626,VALID,135,VALID,0.951215,
2003-12-16, 03:12:00,VALID,916.672,VALID,0,VALID,100,VALID,0.0169808,VALID,18.6329,VALID,127,VALID,0.203307,
2003-12-16, 03:13:00,VALID,916.657,VALID,0,VALID,100,VALID,0.0339617,VALID,18.6392,VALID,127,VALID,0.232422,
2003-12-16, 03:14:00,VALID,916.657,VALID,0,VALID,100,VALID,0,VALID,18.6325,VALID,127,VALID,0.0506944,
2003-12-16, 03:15:00,VALID,916.652,VALID,0,VALID,100,VALID,0,VALID,18.6297,VALID,127,VALID,0.225109,
2003-12-16, 03:16:00,VALID,916.652,VALID,0,VALID,100,VALID,0,VALID,18.6327,VALID,127,VALID,0.175249,
2003-12-16, 03:17:00,VALID,916.645,VALID,0,VALID,100,VALID,0,VALID,18.6193,VALID,135,VALID,0.346294,
2003-12-16, 03:18:00,VALID,916.649,VALID,0,VALID,100,VALID,0.0339617,VALID,18.6124,VALID,152,VALID,0.400391,
2003-12-16, 03:19:00,VALID,916.651,VALID,0,VALID,100,VALID,0.0169808,VALID,18.6359,VALID,154,VALID,0.350472,
2003-12-16, 03:20:00,VALID,916.644,VALID,0,VALID,100,VALID,0.0169808,VALID,18.6124,VALID,145,VALID,0.51617,
2003-12-16, 03:21:00,VALID,916.658,VALID,0,VALID,100,VALID,0.0339617,VALID,18.6163,VALID,150,VALID,0.619048,
2003-12-16, 03:22:00,VALID,916.655,VALID,0.2,VALID,100,VALID,0,VALID,18.6193,VALID,173,VALID,0.662574,
2003-12-16, 03:23:00,VALID,916.649,VALID,0,VALID,100,VALID,0,VALID,18.6265,VALID,165,VALID,0.613735,
2003-12-16, 03:24:00,VALID,916.644,VALID,0,VALID,100,VALID,0.0169808,VALID,18.6163,VALID,138,VALID,0.644886,
2003-12-16, 03:25:00,VALID,916.628,VALID,0,VALID,100,VALID,0.0169808,VALID,18.5898,VALID,132,VALID,0.545455,
2003-12-16, 03:26:00,VALID,916.62,VALID,0,VALID,100,VALID,0.0169808,VALID,18.597,VALID,140,VALID,0.380907,
2003-12-16, 03:27:00,VALID,916.619,VALID,0,VALID,100,VALID,0,VALID,18.5873,VALID,169,VALID,0.576451,
2003-12-16, 03:28:00,VALID,916.607,VALID,0,VALID,100,VALID,0.0169808,VALID,18.5707,VALID,170,VALID,0.415206,
2003-12-16, 03:29:00,VALID,916.62,VALID,0,VALID,100,VALID,0.0169808,VALID,18.5672,VALID,167,VALID,0.254883,
2003-12-16, 03:30:00,VALID,916.63,VALID,0,VALID,100,VALID,0.0169808,VALID,18.5711,VALID,168,VALID,0.259766,
2003-12-16, 03:31:00,VALID,916.626,VALID,0,VALID,100,VALID,0.0169808,VALID,18.5709,VALID,141,VALID,0.386814,
2003-12-16, 03:32:00,VALID,916.631,VALID,0,VALID,100,VALID,0,VALID,18.558,VALID,137,VALID,0.526163,
2003-12-16, 03:33:00,VALID,916.646,VALID,0,VALID,100,VALID,0.0169808,VALID,18.5478,VALID,125,VALID,0.608378,
2003-12-16, 03:34:00,VALID,916.65,VALID,0,VALID,100,VALID,0.0169808,VALID,18.5354,VALID,124,VALID,0.584896,
2003-12-16, 03:35:00,VALID,916.653,VALID,0,VALID,100,VALID,0.0339617,VALID,18.5319,VALID,126,VALID,0.295856,
2003-12-16, 03:36:00,VALID,916.651,VALID,0,VALID,100,VALID,0.0169808,VALID,18.5319,VALID,142,VALID,0.620414,
2003-12-16, 03:37:00,VALID,916.639,VALID,0,VALID,100,VALID,0.0339617,VALID,18.5418,VALID,142,VALID,0.5984,
2003-12-16, 03:38:00,VALID,916.641,VALID,0,VALID,100,VALID,0.0509425,VALID,18.5481,VALID,171,VALID,0.229687,
2003-12-16, 03:39:00,VALID,916.631,VALID,0.2,VALID,100,VALID,0.0169808,VALID,18.5448,VALID,160,VALID,0.40067,
2003-12-16, 03:40:00,VALID,916.629,VALID,0,VALID,100,VALID,0.0339617,VALID,18.5617,VALID,145,VALID,0.498047,
2003-12-16, 03:41:00,VALID,916.635,VALID,0,VALID,100,VALID,0,VALID,18.5548,VALID,143,VALID,0.716542,
2003-12-16, 03:42:01,VALID,916.632,VALID,0,VALID,100,VALID,0.0509425,VALID,18.5448,VALID,141,VALID,1.04469,
2003-12-16, 03:43:00,VALID,916.652,VALID,0,VALID,100,VALID,0,VALID,18.5354,VALID,138,VALID,1.26391,
2003-12-16, 03:44:00,VALID,916.634,VALID,0,VALID,100,VALID,0.0169808,VALID,18.5416,VALID,137,VALID,1.27604,
2003-12-16, 03:45:00,VALID,916.634,VALID,0,VALID,100,VALID,0.0169808,VALID,18.5386,VALID,136,VALID,1.1508,
2003-12-16, 03:46:00,VALID,916.624,VALID,0,VALID,100,VALID,0.0169808,VALID,18.5285,VALID,128,VALID,0.920945,